星链-30913 (STARLINK-30913 )

导读

STARLINK-30913是美国太空探索技术公司SpaceX星链卫星互联网项目的卫星,于2023年11月20日发射入轨,是星链低轨卫星星座的组成部分。星链系统旨在为全球提供高速互联网接入服务,该卫星承担着网络信号传输转发任务,服务全球偏远地区及各类移动终端的互联网连接需求。

Basic Information
目录编号:
58388
目录名称:
STARLINK-30913
国际标识:
2023-178Q
轨道中心:
EARTH
卫星名称:
星链-30913
卫星全名:
星链-30913 (STARLINK-30913 )
卫星状态:
在轨 (已飞行941 天)
发射日期:
2023-11-20 UTC
国别 :
美国 (US)
星等 :
--
Orbit Information
数据来源 国际轨道数据
星历时间: 2026-06-17T20:17:00+0800
22小时前
查看轨道信息
半长轴: 6840.859km
偏心率: 0.0001281
轨道倾角: 53.161°
近地点辐角 69.549°
升交点赤经 256.067°
平近点角 290.565°
近地点: 461.845km
远地点: 463.599km
周期: 93.848分钟
每日圈数: 15.343939
Detailed Information
固有亮度:
5
最大亮度:
0.3
卫星平台:
Starlink v2.0 mini
覆盖范围:
全球
运营商:
太空探索技术公司
运营商所在国:
美国
制造商(研发单位):
太空探索技术公司
制造商所在国:
美国
使用方式:
暂无
Satellite Introduction
星链(Starlink)计划是由太空探索技术公司(SpaceX)提出的一个巨型低轨卫星互联网星座项目,计划在2019年至2024年间在太空搭建由约1.2万颗卫星组成的“星链”网络,其中1584颗将部署在地球上空550千米处的近地轨道,并从2020年开始工作。该卫星仍在工作。
2D Orbit Map
3D Orbit Map
Orbit Altitude Analysis Chart
Orbit Inclination Analysis Chart
Orbit Comprehensive Analysis Chart
View Comprehensive Chart